Showing default

OPS 4682 (SNAPSHOT), 1314

Orbit data source: Space-Track

OPS 4682 (SNAPSHOT), 1314 is an American payload satellite in LEO that was launched on Sat, 03 Apr 1965 UTC via an ATLAS SLV-3 AGENA D launch vehicle from the Air Force Western Test Range (AFWTR). Payload-class satellites include a variety of spacecraft equipped with specific instruments for various scientific and technological missions. These include communications satellites like Starlink; space stations such as the ISS; scientific satellites like the Hubble; Earth observation satellites from companies like Planet Labs, Umbra, and HawkEye 360; GPS; miniature CubeSats for education and research; and military/defense satellites.

Loading next visibility...
Identifier
1314, 1965-027A
Orbit
LEO
Country
Flag of USUS
Related business
Manufacturer
RCA/East Windsor
Mission
Spacecraft
Bus & Motor
SNAP 10 REACTOR, Unknown motor
Mass
2,386 kg wet, 422 kg dry
Launch date (UTC)
1965-04-03 (61 years ago)
Launch vehicle
ATLAS SLV-3 AGENA D
Launch site
Air Force Western Test Range (AFWTR)
Object type
Payload
Rocket body
Debris
Shape & HBR
Unknown shape, 2.3 m
Radar Cross Section
Large (>1 m²)

Expand to show TLE details & history
Last TLE update: 16 hours ago

TLE from 16 hours ago
0 OPS 4682 (SNAPSHOT)
1  1314U 65027A   26035.49760109 -.00000019  00000-0 -97040-4 0  9997
2  1314  90.2407   3.3266 0028576 277.5321 199.8042 12.91802574613897
Epoch: 2026-02-04T11:56Z
TLE epoch observation values (Epoch: 2026-02-04T11:56:32.734Z)
Latitude
62.85611°
Longitude
-130.00597°
Altitude
1,325.88 km
Speed
7.19 km/s
True Right ascension
12h 15m 10s
True Declination
62° 43' 36"
Sunlit
Object was in partial shadow at epoch
Visualization orbit readout
Latitude
Unknown
Longitude
Unknown
Altitude
Unknown
Speed
Unknown
Apparent Right ascension
Unknown
Apparent Declination
Unknown
Sunlit
N/A
Visualization observer readout
Local Sidereal Time
05:40:25
Azimuth
Unknown
Elevation
Unknown
Doppler factor
Unknown
Orbital elements
Apogee altitude
1,313.43 km
Perigee altitude
1,269.597 km
Semi-major axis
7,669.651 km
Eccentricity
0.00286
Inclination
90.2407°
RAAN
3.3266°
Arg. of periapsis
277.5321°
True anomaly
199.69363°
Mean anomaly
199.8042°
Eccentric anomaly
199.74888°
Mean motion
3.23132 °/min
Orbital period
111.41 mins
BSTAR
-0.00009704
Loading maneuver chart data...
Computing Atmospheric mass density...
Loading historical data...
Loading historical data...
Loading historical data...
Loading historical data...
Loading historical data...
Loading historical data...
Loading historical data...

Documentation

Showing up to 5 results
|